Home > Weather > Ravensburg > Past weeks

Flag for Germany Weather for the Past 2 Weeks in Ravensburg, Baden-Württemberg, Germany

Now
32 °F

Partly sunny.


Feels Like: 29 °F
Forecast: 33 / 43 °F
Wind: 3 mph from Northeast

Location: Friedrichshafen Airport

Current Time: Feb 12, 2016 at 9:16:46 AM

Latest Report: Feb 12, 2016 at 8:20 AM


Visibility: N/A

Pressure: 29.68 "Hg

Humidity: 80%

Dew point: 27 °F

Location of RavensburgLocation

Historic Weather in Ravensburg — Graph

°F

Ravensburg Temperature Yesterday

Maximum temperature yesterday: 43 °F (at 12:50 PM)
Minimum temperature yesterday: 30 °F (at 8:20 PM)
Average temperature yesterday: 37 °F

High & Low Weather Summary for the Past Weeks

 TemperatureHumidityPressure
High55 °F (Feb 1, 1:50 PM)93% (Jan 28, 8:50 PM)30.48 "Hg (Jan 28, 8:50 PM)
Low30 °F (Feb 6, 12:20 AM)36% (Feb 11, 2:20 PM)29.30 "Hg (Feb 9, 5:20 PM)
Average42 °F75%30.04 "Hg
* Reported Jan 28 7:20 AM — Feb 12 7:50 AM, Ravensburg, Weather by CustomWeather, © 2016

Note: Actual official high and low records may vary slightly from our data, if they occured in-between our weather recording intervals... More about our weather records

Advertising

Ravensburg Weather History for the Previous 24 Hours

 ConditionsComfort  
Time TempWeatherWind HumidityBarometerVisibility
7:50 AM
Fri, Feb 12
32 °FBroken clouds.2 mph80%29.68 "HgN/A
7:20 AM32 °FPartly cloudy.2 mph80%29.68 "HgN/A
6:50 AM32 °FMostly cloudy.2 mph80%29.68 "HgN/A
6:20 AM32 °FPartly cloudy.2 mph80%29.71 "Hg5 mi
5:50 AM30 °FLight snow. Mostly cloudy.2 mph86%29.71 "Hg5 mi
4:50 AM30 °FSnow flurries. Mostly cloudy.2 mph86%29.71 "HgN/A
4:20 AM30 °FSnow flurries. Overcast.2 mph80%29.71 "HgN/A
3:50 AM30 °FOvercast.2 mph80%29.71 "HgN/A
3:20 AM30 °FMostly cloudy.1 mph80%29.71 "HgN/A
2:50 AM32 °FOvercast.2 mph75%29.74 "HgN/A
2:20 AM32 °FMostly cloudy.2 mph75%29.74 "HgN/A
1:50 AM32 °FOvercast.2 mph75%29.74 "HgN/A
1:20 AM30 °FOvercast.No wind80%29.74 "HgN/A
12:50 AM30 °FOvercast.2 mph80%29.74 "HgN/A
12:20 AM30 °FOvercast.2 mph80%29.74 "HgN/A
11:50 PM
Thu, Feb 11
30 °FOvercast.2 mph80%29.74 "HgN/A
10:50 PM30 °FClear.2 mph75%29.74 "Hg10 mi
10:20 PM30 °FClear.No wind75%29.74 "Hg10 mi
9:20 PM30 °FClear.2 mph75%29.71 "Hg10 mi
8:50 PM30 °FClear.2 mph75%29.71 "Hg10 mi
8:20 PM30 °FClear.No wind69%29.71 "Hg10 mi
7:50 PM32 °FClear.No wind69%29.71 "Hg10 mi
7:20 PM34 °FClear.2 mph60%29.71 "Hg10 mi
6:50 PM34 °FClear.3 mph60%29.74 "Hg10 mi
6:20 PM36 °FClear.2 mph52%29.74 "Hg10 mi
5:50 PM37 °FClear.1 mph48%29.74 "Hg10 mi
5:20 PM41 °FSunny.2 mph42%29.74 "Hg10 mi
4:50 PM41 °FSunny.1 mph39%29.74 "Hg10 mi
4:20 PM43 °FSunny.3 mph36%29.74 "Hg10 mi
3:50 PM41 °FScattered clouds.6 mph42%29.74 "HgN/A
3:20 PM43 °FScattered clouds.7 mph36%29.74 "HgN/A
2:50 PM43 °FScattered clouds.7 mph36%29.74 "HgN/A
2:20 PM43 °FPassing clouds.8 mph36%29.74 "HgN/A
1:50 PM43 °FPassing clouds.7 mph39%29.74 "HgN/A
1:20 PM43 °FPassing clouds.9 mph39%29.77 "HgN/A
12:50 PM43 °FPassing clouds.8 mph39%29.77 "HgN/A
12:20 PM41 °FPassing clouds.7 mph49%29.80 "HgN/A
11:50 AM41 °FPassing clouds.7 mph49%29.80 "HgN/A
11:20 AM41 °FPassing clouds.7 mph45%29.80 "HgN/A
10:50 AM41 °FPassing clouds.5 mph49%29.80 "HgN/A
10:20 AM39 °FPartly sunny.5 mph52%29.80 "HgN/A
9:50 AM37 °FPassing clouds.7 mph56%29.80 "HgN/A
9:20 AM37 °FSunny.6 mph60%29.80 "Hg10 mi
Weather by CustomWeather, © 2016

See weather overviewHow to use our weather pages